{"data":{"norad_id":66834,"intl_designator":"2025-280P","name":"STARLINK-35840","alt_names":[],"object_type":"PAYLOAD","status":"ACTIVE","operator":null,"country":"US","launch_date":"2025-12-02","launch_site_code":"AFWTR","launch_vehicle":null,"mission":null,"orbit_class":"UNKNOWN","rcs_meters":null,"size_class":null,"mass_kg":null,"dimensions":null,"purposes":["comms"],"wikipedia_slug":null,"has_3d_model":false,"image_url":null,"decayed_at":null,"tle_current":{"epoch":"2026-05-25T03:36:34.587648Z","epoch_age_seconds":55930,"freshness":"FRESH","line1":"1 66834U 25280P   26145.15040032  .00003042  00000+0  26257-3 0  9990","line2":"2 66834  70.0009 141.4867 0004063 267.5690  92.5004 14.98337786 27537","mean_motion":14.98337786,"eccentricity":0.0004063,"inclination_deg":70.0009,"raan_deg":141.4867,"arg_perigee_deg":267.569,"mean_anomaly_deg":92.5004,"bstar":0.00026257,"rev_number":2753,"period_min":96.106499712876,"perigee_km":569.20795989703,"apogee_km":574.85566707487,"semimajor_km":6950.168813486,"source":"CELESTRAK","updated_at":"2026-05-25T13:38:21.336466Z"}}}